Jackson, MS

3:30 AM CDT on May 23, 2017 (GMT -0500)
Jackson-Evers International

Weather History for KJAN - August, 2014

Change the Weather History Date:

Saturday, August 2, 2014

  Actual Average Record
Temperature  
Mean Temperature 80 °F 82 °F  
Max Temperature 87 °F 92 °F 105 °F (2010)
Min Temperature 72 °F 72 °F 59 °F (1965)
Degree Days  
Heating Degree Days 0 0  
Month to date heating degree days 0 0  
Since 1 June heating degree days 0 0  
Since 1 July heating degree days 0 0  
Cooling Degree Days 15 17  
Month to date cooling degree days 25 34  
Year to date cooling degree days 1239 1329  
Since 1 June cooling degree days 908 971  
Growing Degree Days 30 (Base 50)    
Moisture  
Dew Point 70 °F    
Average Humidity 74    
Maximum Humidity 93    
Minimum Humidity 55    
Precipitation  
Precipitation 0.01 in 0.16 in 2.60 in (1908)
Month to date precipitation 0.04 0.32  
Year to date precipitation 40.21 33.36  
Sea Level Pressure  
Sea Level Pressure 30.01 in    
Wind  
Wind Speed 5 mph (NNE)    
Max Wind Speed 13 mph    
Max Gust Speed 17 mph    
Visibility 10 miles    
Events Rain    
T = Trace of Precipitation, MM = Missing Value Source: NWS Daily Summary

Daily Weather History Graph

Daily Weather History Graph

Search for Another Location

Airport or City:

Trip Planner

Search our weather history database for the weather conditions in past years. The results will help you decide how hot, cold, wet, or windy it might be!

Date:

Astronomy

Aug. 02, 2014 Rise Set
Actual Time 6:15 AM CDT 7:56 PM CDT
Civil Twilight 5:49 AM CDT 8:23 PM CDT
Nautical Twilight 5:16 AM CDT 8:55 PM CDT
Astronomical Twilight 4:43 AM CDT 9:29 PM CDT
Moon 12:12 PM CDT (8/2) 11:41 PM CDT (8/2)
Length of Visible Light 14h 34m
Length of Day
13h 41m
Waxing Crescent, 37% of the Moon is Illuminated
Aug 2
Waxing Crescent
Aug 3
First Quarter
Aug 10
Full
Aug 17
Last Quarter
Aug 25
New

Hourly Weather History & Observations

Time (CDT) Temp. Heat Index Dew Point Humidity Pressure Visibility Wind Dir Wind Speed Gust Speed Precip Events Conditions
12:54 AM 73.0 °F - 70.0 °F 90% 30.00 in 10.0 mi Calm Calm - N/A   Overcast
1:54 AM 73.0 °F - 71.1 °F 93% 30.00 in 10.0 mi Calm Calm - 0.00 in   Overcast
2:54 AM 71.6 °F - 69.8 °F 94% 30.00 in 10.0 mi ENE 3.5 mph - N/A   Overcast
3:54 AM 73.0 °F - 70.0 °F 90% 29.98 in 10.0 mi Calm Calm - N/A   Overcast
4:54 AM 73.0 °F - 69.1 °F 87% 29.99 in 10.0 mi East 3.5 mph - N/A   Overcast
5:54 AM 73.0 °F - 70.0 °F 90% 30.00 in 10.0 mi Calm Calm - N/A   Mostly Cloudy
6:54 AM 72.0 °F - 70.0 °F 93% 30.01 in 10.0 mi NE 3.5 mph - N/A   Overcast
7:54 AM 73.9 °F - 70.0 °F 87% 30.02 in 10.0 mi NE 4.6 mph - N/A   Mostly Cloudy
8:54 AM 77.0 °F - 69.1 °F 76% 30.03 in 10.0 mi NNE 4.6 mph - N/A   Overcast
9:54 AM 79.0 °F - 69.1 °F 72% 30.04 in 10.0 mi NE 3.5 mph - N/A   Overcast
10:54 AM 78.1 °F - 71.1 °F 79% 30.04 in 10.0 mi NNW 3.5 mph - N/A   Overcast
11:54 AM 75.9 °F - 71.1 °F 85% 30.05 in 10.0 mi NNW 5.8 mph - 0.01 in Rain Light Rain
12:54 PM 77.0 °F - 71.1 °F 82% 30.04 in 10.0 mi North 4.6 mph - 0.00 in   Overcast
1:54 PM 80.1 °F 83.2 °F 70.0 °F 71% 30.03 in 10.0 mi North 5.8 mph - 0.00 in   Mostly Cloudy
2:54 PM 82.9 °F 87.0 °F 70.0 °F 65% 30.01 in 10.0 mi NNE 8.1 mph - 0.00 in   Partly Cloudy
3:54 PM 86.0 °F 89.4 °F 68.0 °F 55% 29.98 in 10.0 mi ENE 4.6 mph - N/A   Clear
4:54 PM 86.0 °F 92.2 °F 72.0 °F 63% 29.98 in 10.0 mi NNE 8.1 mph - N/A   Scattered Clouds
5:54 PM 84.9 °F 90.1 °F 71.1 °F 63% 29.97 in 10.0 mi North 6.9 mph - N/A   Partly Cloudy
6:54 PM 82.0 °F 85.9 °F 70.0 °F 67% 29.98 in 10.0 mi North 6.9 mph - N/A   Partly Cloudy
7:54 PM 79.0 °F - 69.1 °F 72% 29.99 in 10.0 mi NNE 9.2 mph - N/A   Scattered Clouds
8:54 PM 78.1 °F - 70.0 °F 76% 30.00 in 10.0 mi NE 4.6 mph - N/A   Overcast
9:54 PM 77.0 °F - 71.1 °F 82% 30.01 in 10.0 mi NE 3.5 mph - N/A   Overcast
10:54 PM 77.0 °F - 71.6 °F 83% 30.00 in 10.0 mi NE 4.6 mph - N/A   Overcast
11:54 PM 77.0 °F - 72.0 °F 84% 30.00 in 10.0 mi NE 3.5 mph - N/A   Overcast